Regional Weather Roundup
Issued by NWS

Home | Current Version | Previous Version | Text Only | Print | Product List | Glossary On
Versions: 1 2 3 4 5 6 7 8 9 10 11 12 13 14 15 16 17 18 19 20 21 22 23 24 25 26 27 28 29 30 31 32 33 34 35 36 37 38 39 40 41 42 43 44 45 46 47 48 49 50
000
ASUS43 KMPX 211610
RWRMN
WEATHER ROUNDUP FOR MINNESOTA
NATIONAL WEATHER SERVICE TWIN CITIES/CHANHASSEN MN
1100 AM CDT SUN SEP 21 2014


NOTE: "FAIR" INDICATES FEW OR NO CLOUDS BELOW 12,000 FEET WITH NO
SIGNIFICANT WEATHER AND/OR OBSTRUCTIONS TO VISIBILITY. N/A MEANS
CURRENT SKY AND/OR WEATHER CONDITIONS ARE NOT AVAILABLE.

MNZ060>063-068>070-211700-
   Twin Cities Metro

CITY           SKY/WX    TMP DP  RH WIND       PRES   REMARKS
TWIN CITIES    PTSUNNY   58  49  72 NW16      30.12R
ST PAUL        CLOUDY    57  50  77 NW14      30.12R
CRYSTAL        MOSUNNY   60  47  61 N12       30.12R
BLAINE         PTSUNNY   57  50  77 NW13      30.12R
LAKEVILLE      PTSUNNY   55  48  76 N13       30.12R
EDEN PRAIRIE   PTSUNNY   58  48  69 NW13G22   30.12R
SOUTH ST PAUL  CLOUDY    58  47  67 N9G20     30.11R
LAKE ELMO      PTSUNNY   55  50  82 N8        30.11S
$$
MNZ001>005-007-008-013>017-022>024-027-028-211700-
   Northwest Minnesota

CITY           SKY/WX    TMP DP  RH WIND       PRES   REMARKS
BEMIDJI        PTSUNNY   56  49  75 NW8       30.17R
HALLOCK        CLOUDY    55  54  94 N8        30.21R
ROSEAU         CLOUDY    55  50  82 W7        30.19R
WARROAD        MOSUNNY   55  52  88 NW5       30.18R
THIEF RVR FALL CLOUDY    55  52  88 NW10      30.20R
CROOKSTON      CLOUDY    52  52 100 N10       30.23R
FOSSTON        CLOUDY    52  52 100 NW8       30.21R
DETROIT LAKES  CLOUDY    54  50  87 N9        30.21R
MOORHEAD       CLOUDY    54  54 100 N8        30.23R
PARK RAPIDS    CLOUDY    54  50  86 NW14      30.17R
MAHNOMEN       CLOUDY    53  50  89 N12       30.21R
$$
MNZ006-009>011-018-025>026-211700-
   North Central Minnesota

CITY           SKY/WX    TMP DP  RH WIND       PRES   REMARKS
BAUDETTE       MOSUNNY   57  48  72 N6        30.17R
FLAG ISLAND    MOSUNNY   54  48  82 NW6       30.16R
INTL FALLS     SUNNY     53  42  66 NE7       30.15R
WASKISH        MOSUNNY   54  54 100 N7        30.18R
BIG FORK       MOSUNNY   55  48  76 N6        30.15R
LONGVILLE      PTSUNNY   57  48  72 N8        30.15R
GRAND RAPIDS   CLOUDY    54  45  71 NW14      30.15R
CRANE LAKE     MOSUNNY   48  41  76 N3        30.14R
ORR            SUNNY     54  39  58 NW3       30.10R
COOK           SUNNY     52  43  71 N9        30.12R
WALKER         PTSUNNY   56  47  74 N6        30.16R
$$
MNZ012-019>021-037-211700-
   Northeast Minnesota

CITY           SKY/WX    TMP DP  RH WIND       PRES   REMARKS
DULUTH         MOSUNNY   57  43  59 N13       30.08R
ELY            MOSUNNY   48  39  71 N6        30.10R
HIBBING        MOSUNNY   57  46  66 N10       30.11R
EVELETH        SUNNY     54  41  62 N12G20    30.11R
DULUTH HARBOR  MOSUNNY   57  50  77 NE7       30.09R
TWO HARBORS    MOSUNNY   55  43  62 N9        30.07R
SILVER BAY     MOSUNNY   52  43  71 NW6       30.07R
GRAND MARAIS     N/A     53  37  54 VRB7      30.07R
G MARAIS ARPRT MOSUNNY   46  34  61 N15G23    30.06R
$$
MNZ029>031-032-039>041-046>048-054>057-064-211700-
   West Central Minnesota

CITY           SKY/WX    TMP DP  RH WIND       PRES   REMARKS
FERGUS FALLS   CLOUDY    55  50  82 N9        30.21R
WHEATON        MOSUNNY   57  48  72 NW13      30.23S
MORRIS         SUNNY     55  52  88 N14       30.20R
ALEXANDRIA     CLOUDY    56  50  80 N12       30.20R
ELBOW LAKE     CLOUDY    55  49  82 NW13      30.20R
WADENA         CLOUDY    55  50  82 NW9       30.17S
GLENWOOD       MOSUNNY   57  52  82 NW13      30.19R
APPLETON       MOSUNNY   63  50  63 N14       30.20R
BENSON         CLOUDY    57  52  82 N10       30.21R
ORTONVILLE     PTSUNNY   59  50  72 NW9       30.21S
MADISON        SUNNY     63  52  67 NW13G18   30.21R
WILLMAR        FAIR      57  50  77 NW16      30.20R
$$
MNZ033>034-036-042>043-049>051-058-059-211700-
   Central Minnesota

CITY           SKY/WX    TMP DP  RH WIND       PRES   REMARKS
ST CLOUD       PTSUNNY   60  48  64 NW9       30.15R
SAUK CENTRE    CLOUDY    56  50  79 NW9       30.17R
PAYNESVILLE    CLOUDY    55  50  83 W9        30.17R
AITKIN         CLOUDY    57  48  72 NW8       30.13R
PINE RIVER     PTSUNNY   57  48  72 N10G18    30.18R
BRAINERD       MOSUNNY   57  47  69 N12       30.15R
STAPLES        CLOUDY    55  48  76 NW8       30.17R
LONG PRAIRIE   CLOUDY    55  48  76 NW9       30.17R
LITTLE FALLS   PTSUNNY   55  46  71 NW5       30.16R
LITCHFIELD     MOSUNNY   61  54  77 N12G20    30.16R
BUFFALO        MOSUNNY   59  47  64 N14       30.15S
MAPLE LAKE     PTSUNNY   59  50  72 NW13      30.16R
$$
MNZ037-044-045-052-053-211700-
   East Central Minnesota

CITY           SKY/WX    TMP DP  RH WIND       PRES   REMARKS
PRINCETON      PTSUNNY   57  48  72 NW12G18   30.14R
MORA           CLOUDY    54  45  71 N12       30.15R
CAMBRIDGE      PTSUNNY   59  46  63 N10G18    30.11R
RUSH CITY      PTSUNNY   58  47  69 NW10G17   30.12R
MOOSE LAKE     PTSUNNY   55  46  71 N10G16    30.09S
HINCKLEY       PTSUNNY   57  50  77 NW15      30.12R
CLOQUET        MOSUNNY   54  45  71 NW12      30.10R
MCGREGOR       PTSUNNY   54  48  82 NW10      30.14R
$$
MNZ071>073-080-081-089-090-097-098-211700-
   Southwest Minnesota

CITY           SKY/WX    TMP DP  RH WIND       PRES   REMARKS
MONTEVIDEO     MOSUNNY   63  52  67 N14       30.21R
GRANITE FALLS  SUNNY     59  50  71 NW13G20   30.21R
CANBY          SUNNY     60  50  69 NW14G20   30.23R
MARSHALL       MOSUNNY   61  46  59 NW17      30.20R
REDWOOD FALLS  MOSUNNY   59  50  72 NW10      30.18R
OLIVIA         PTSUNNY   59  52  77 NW9       30.17R
PIPESTONE      SUNNY     61  46  59 N9G20     30.22R
WINDOM         MOSUNNY   61  48  63 N15G22    30.18S
WORTHINGTON    PTSUNNY   61  46  59 NW18      30.21R
JACKSON        MOSUNNY   61  46  59 N12G21    30.19R
TRACY          MOSUNNY   60  49  68 NW14      30.21R
SLAYTON        MOSUNNY   58  47  67 N17G23    30.21R
$$
MNZ065>067-074>077-082>085-091>093-211700-
   South Central Minnesota

CITY           SKY/WX    TMP DP  RH WIND       PRES   REMARKS
MANKATO        MOSUNNY   61  46  59 N16       30.14R
NEW ULM        PTSUNNY   59  50  72 N13G18    30.16R
ST JAMES       SUNNY     61  48  63 NW14G21   30.17R
FAIRMONT       MOSUNNY   61  45  55 NW12G17   30.16R
GLENCOE        MOSUNNY   59  48  65 NW14G20   30.15R
FARIBAULT      PTSUNNY   61  46  59 N10       30.13R
OWATONNA       CLOUDY    55  48  76 N12G18    30.13R
WASECA         MOSUNNY   55  45  67 N9        30.14S
ALBERT LEA     CLOUDY    57  50  77 NW15      30.13R
$$
MNZ078>079-086>088-094>096-211700-
   Southeast Minnesota

CITY           SKY/WX    TMP DP  RH WIND       PRES   REMARKS
ROCHESTER      PTSUNNY   58  49  72 N20G25    30.10R
RED WING       CLOUDY    59  48  67 N7G16     30.09R
STANTON        CLOUDY    57  49  74 NW12      30.10R
DODGE CENTER   CLOUDY    55  48  76 N13G22    30.11R
WINONA         CLOUDY    61  48  63 N12G18    30.05R
AUSTIN         CLOUDY    55  48  76 NW12G20   30.11R
PRESTON        PTSUNNY   56  53  89 N18G24    30.07S
$$
ABBREVIATIONS USED IN REMARKS
   TC - TEMPERATURES IN CELSIUS
  WCI - WIND CHILL INDEX
   HX - HEAT INDEX
  VSB - VISIBILITY
$$


USA.gov is the U.S. government's official web portal to all federal, state and local government web resources and services.